FW8124 Weather Reports


time (UTC)temp
C
wind
direction
speed
KPH
gust
KPH
rain 1hr
cm
rain 24hr
cm
rain mn
cm
humidity
%
barometer
mb
20260504090104 20 323 6.4 16.1 0.00 0.00 0.00 76 1012.4
20260504081553 18 329 1.6 14.5 0.00 0.00 0.00 82 1012.5
20260504044609 18 331 8.0 16.1 0.00 0.00 0.00 85 1012.0
20260504043055 18 294 6.4 14.5 0.00 0.00 0.00 85 1011.9
20260504041557 18 336 6.4 12.9 0.00 0.00 0.00 85 1011.8
20260504040113 18 0 0.0 4.8 0.00 0.00 0.00 84 1011.8
20260504034610 18 0 0.0 0.0 0.00 0.00 0.00 84 1012.0
20260504033053 18 0 1.6 3.2 0.00 0.00 0.00 84 1012.2
20260504031553 18 0 0.0 1.6 0.00 0.00 0.00 84 1012.2
20260504030056 18 0 0.0 3.2 0.00 0.00 0.00 84 1012.3
20260504024605 18 0 3.2 14.5 0.00 0.00 0.00 84 1012.3
20260504023054 18 327 8.0 16.1 0.00 0.00 0.00 84 1012.3
20260504021556 18 324 9.7 17.7 0.00 0.00 0.00 84 1012.3
20260504020058 18 327 11.3 19.3 0.00 0.00 0.00 84 1012.4
20260504014554 18 336 8.0 17.7 0.00 0.00 0.00 85 1012.5
20260504013103 18 344 6.4 16.1 0.00 0.00 0.00 85 1012.7
20260504011555 18 307 8.0 17.7 0.00 0.00 0.00 85 1012.7
20260504010101 18 324 8.0 16.1 0.00 0.00 0.00 85 1012.7
20260504004606 18 342 1.6 12.9 0.00 0.00 0.00 85 1012.8
20260504003051 18 340 3.2 14.5 0.00 0.00 0.00 85 1013.1
20260504001552 18 340 11.3 17.7 0.00 0.00 0.00 85 1013.1
20260504000056 18 296 9.7 16.1 0.00 0.00 0.00 85 1013.0
20260503234549 18 321 3.2 12.9 0.00 0.00 0.00 85 1013.1
20260503233055 18 330 1.6 4.8 0.00 0.00 0.00 85 1013.2
20260503231549 18 304 3.2 6.4 0.00 0.00 0.00 85 1013.4
20260503230055 18 302 1.6 8.0 0.00 0.00 0.00 85 1013.4
20260503224553 18 313 3.2 6.4 0.00 0.00 0.00 85 1013.5
20260503223052 18 331 1.6 4.8 0.00 0.00 0.00 85 1013.5
20260503221553 18 333 1.6 4.8 0.00 0.00 0.00 85 1013.5
20260503220109 18 333 3.2 8.0 0.00 0.00 0.00 85 1013.7
20260503214550 18 309 1.6 6.4 0.00 0.00 0.00 85 1013.9
20260503213048 18 300 1.6 6.4 0.00 0.00 0.00 84 1013.9
20260503211552 18 296 3.2 9.7 0.00 0.00 0.00 84 1013.9
20260503210052 18 275 1.6 6.4 0.00 0.00 0.00 84 1013.8
20260503204551 18 273 3.2 6.4 0.00 0.00 0.00 84 1013.8
20260503203054 18 277 4.8 9.7 0.00 0.00 0.00 84 1013.6
20260503201553 18 271 3.2 11.3 0.00 0.00 0.00 84 1013.6
20260503200056 18 277 3.2 9.7 0.00 0.00 0.00 84 1013.4
20260503194551 18 230 6.4 14.5 0.00 0.00 0.00 84 1013.0
20260503193050 18 221 6.4 14.5 0.00 0.00 0.00 83 1012.8
20260503191557 18 227 4.8 12.9 0.00 0.00 0.00 83 1012.4
20260503190048 18 234 6.4 14.5 0.00 0.00 0.00 83 1012.2
20260503184559 18 205 4.8 14.5 0.00 0.00 0.00 83 1012.0
20260503183055 18 215 8.0 16.1 0.00 0.00 0.00 83 1012.0
20260503181553 18 240 8.0 16.1 0.00 0.00 0.00 83 1011.9
20260503180109 18 226 8.0 16.1 0.00 0.00 0.00 83 1011.8
20260503174556 19 236 6.4 14.5 0.00 0.00 0.00 82 1011.7
20260503173056 19 250 8.0 14.5 0.00 0.00 0.00 82 1011.7
20260503171550 19 248 8.0 14.5 0.00 0.00 0.00 82 1011.4
20260503160107 19 267 11.3 16.1 0.00 0.00 0.00 80 1011.7